"2010-08-22 00:00:00",92461,2.253,186.3,13.16,0.486,24.46,111.2524,28.11,28.97,20.34,0,111.6,13.04,28.96,148.3
"2010-08-22 00:00:30",92462,2.489,170.9,8.04,0.354,24.51,111.2537,28.12,28.95,20.57,0,111.6,13.04,28.97,132.9
"2010-08-22 00:01:00",92463,2.359,152.4,9.1,0.724,24.43,111.2541,28.12,28.96,20.12,0,111.6,13.04,28.97,114.4
"2010-08-22 00:01:30",92464,2.294,162,7.174,0.393,24.45,111.251,28.11,28.94,20.17,0,111.6,13.04,28.96,124.0
"2010-08-22 00:02:00",92465,2.564,144.6,8.48,0.426,24.39,111.2488,28.1,28.96,20.14,0,111.6,13.04,28.95,106.6
"2010-08-22 00:02:30",92466,0.89,179.3,54.87,0.631,24.36,111.2462,28.1,28.94,19.84,0,111.6,13.04,28.95,141.3
"2010-08-22 00:03:00",92467,0.997,140.4,17.63,0.548,24.35,111.2424,28.09,28.95,20.08,0,111.6,13.04,28.94,102.4
"2010-08-22 00:03:30",92468,1.202,106.4,16.99,0.583,24.33,111.2413,28.09,28.96,20.22,0,111.6,13.04,28.94,68.4
"2010-08-22 00:04:00",92469,2.791,97.3,10.68,0.359,24.24,111.2398,28.08,28.95,20.26,0,111.5,13.04,28.93,59.3
"2010-08-22 00:04:30",92470,2.71,70.91,11.5,0.431,24.18,111.2371,28.07,28.95,20.44,0,111.5,13.04,28.92,32.9
"2010-08-22 00:05:00",92471,2.701,65.78,15.53,0.304,24.23,111.2365,28.07,28.94,20.37,0,111.5,13.04,28.92,27.8
"2010-08-22 00:05:30",92472,2.656,51.84,8.32,0.293,24.22,111.2332,28.06,28.94,20.33,0,111.5,13.04,28.91,13.8
"2010-08-22 00:06:00",92473,2.882,55.48,8.48,0.357,24.13,111.2309,28.06,28.93,20.53,0,111.5,13.04,28.91,17.5
"2010-08-22 00:06:30",92474,2.175,43.23,10.19,0.346,24.14,111.2307,28.06,28.91,20.1,0,111.5,13.04,28.91,5.2
"2010-08-22 00:07:00",92475,1.429,31.83,8.09,0.221,24.17,111.2315,28.06,28.92,20.09,0,111.5,13.04,28.91,353.8
"2010-08-22 00:07:30",92476,1.434,347.3,11.25,0.536,24.21,111.2388,28.08,28.95,19.96,0,111.5,13.04,28.93,309.3
"2010-08-22 00:08:00",92477,2.13,338.4,7.87,0.306,24.08,111.2391,28.08,28.95,19.97,0,111.5,13.04,28.93,300.4
"2010-08-22 00:08:30",92478,1.424,348.6,24.03,0.486,24.21,111.2395,28.08,28.95,19.97,0,111.5,13.04,28.93,310.6
"2010-08-22 00:09:00",92479,0.233,349,17.28,0.18,24.39,111.2553,28.12,28.95,19.96,0,111.5,13.04,28.97,311.0
"2010-08-22 00:09:30",92480,0.128,304.4,16.9,0.216,24.15,111.2563,28.12,28.96,19.98,0,111.5,13.03,28.97,266.4
"2010-08-22 00:10:00",92481,0.621,335.5,32.64,0.252,24.16,111.248,28.1,28.98,19.99,0,111.5,13.04,28.95,297.5
"2010-08-22 00:10:30",92482,1.548,20.18,10.2,0.263,23.98,111.2673,28.15,28.99,20.02,0,111.5,13.04,29.00,342.2
"2010-08-22 00:11:00",92483,2.049,25.68,6.489,0.193,23.96,111.2799,28.18,29,19.94,0,111.5,13.04,29.03,347.7
"2010-08-22 00:11:30",92484,2.13,26.92,9.06,0.651,24.05,111.2877,28.2,29.03,19.94,0,111.5,13.04,29.06,348.9
"2010-08-22 00:12:00",92485,2.384,25.11,18.93,0.727,24.05,111.2813,28.19,29.01,19.88,0,111.5,13.04,29.04,347.1
"2010-08-22 00:12:30",92486,2.646,2.156,5.632,1.018,24.13,111.2821,28.19,29.03,19.89,0,111.5,13.04,29.04,324.2
"2010-08-22 00:13:00",92487,1.814,3.543,10.19,0.541,24.2,111.2924,28.22,29.04,19.77,0,111.5,13.04,29.07,325.5
"2010-08-22 00:13:30",92488,1.652,7.58,11.45,0.72,24.24,111.3143,28.27,29.06,19.7,0,111.5,13.04,29.12,329.6
"2010-08-22 00:14:00",92489,1.922,0.008,10.73,1.127,24.39,111.3228,28.3,29.09,19.7,0,111.5,13.04,29.15,322.0
"2010-08-22 00:14:30",92490,2.239,5.413,7.8,0.485,24.23,111.3254,28.3,29.1,19.62,0,111.5,13.04,29.15,327.4
"2010-08-22 00:15:00",92491,2.2,1.566,9.21,0.944,24.24,111.332,28.32,29.12,19.57,0,111.5,13.04,29.17,323.6
"2010-08-22 00:15:30",92492,1.892,356.2,10,0.886,24.18,111.3262,28.3,29.13,19.51,0,111.5,13.04,29.15,318.2
"2010-08-22 00:16:00",92493,4.431,347.1,3.29,0.329,24.01,111.3204,28.29,29.1,19.29,0,111.5,13.04,29.14,309.1
"2010-08-22 00:16:30",92494,4.685,346.7,5.451,0.605,24.16,111.2966,28.23,29.06,19.47,0,111.5,13.04,29.08,308.7
"2010-08-22 00:17:00",92495,3.909,351.5,5.57,0.862,24.2,111.2909,28.21,29.06,19.51,0,111.5,13.04,29.06,313.5
"2010-08-22 00:17:30",92496,2.319,356.3,8.89,0.9,24.24,111.2887,28.21,29.05,19.63,0,111.5,13.04,29.06,318.3
"2010-08-22 00:18:00",92497,2.698,9.25,14.63,1.167,24.09,111.2904,28.21,29.06,19.73,0,111.5,13.05,29.06,331.2
"2010-08-22 00:18:30",92498,3.572,347.9,12.54,0.988,23.99,111.289,28.21,29.04,19.6,0,111.5,13.05,29.06,309.9
"2010-08-22 00:19:00",92499,4.23,345.1,5.799,0.622,24.05,111.2697,28.16,29.03,19.67,0,111.5,13.05,29.01,307.1
"2010-08-22 00:19:30",92500,3.64,349,3.517,0.445,24.04,111.2611,28.14,29.03,19.46,0,111.5,13.05,28.99,311.0
"2010-08-22 00:20:00",92501,3.634,349.8,4.816,0.641,24.02,111.2568,28.13,28.99,19.46,0,111.5,13.05,28.98,311.8
"2010-08-22 00:20:30",92502,3.545,351.8,3.402,0.521,24.03,111.2426,28.09,28.98,19.73,0,111.5,13.05,28.94,313.8
"2010-08-22 00:21:00",92503,3.526,347.8,3.441,0.344,23.96,111.2318,28.06,28.95,20.13,0,111.5,13.05,28.91,309.8
"2010-08-22 00:21:30",92504,3.224,343.1,5.693,0.265,23.93,111.226,28.05,28.93,20.13,0,111.5,13.05,28.90,305.1
"2010-08-22 00:22:00",92505,3.525,343.2,5.681,0.288,24.01,111.2065,28,28.9,20.19,0,111.5,13.05,28.85,305.2
"2010-08-22 00:22:30",92506,3.429,349.2,6.061,0.555,24.17,111.2019,27.98,28.88,20.27,0,111.5,13.05,28.83,311.2
"2010-08-22 00:23:00",92507,3.816,349.1,3.656,0.378,24.18,111.1989,27.98,28.88,20.13,0,111.5,13.05,28.83,311.1
"2010-08-22 00:23:30",92508,3.592,343.2,9.1,0.499,24.12,111.1996,27.98,28.86,20.08,0,111.5,13.05,28.83,305.2
"2010-08-22 00:24:00",92509,4.076,332.1,2.932,0.3,24.04,111.191,27.96,28.85,19.99,0,111.5,13.05,28.81,294.1
"2010-08-22 00:24:30",92510,4.355,339.6,4.238,0.222,24,111.1826,27.93,28.82,19.93,0,111.5,13.05,28.78,301.6
"2010-08-22 00:25:00",92511,4.037,336.2,1.603,0.154,23.96,111.1781,27.92,28.81,19.95,0,111.5,13.05,28.77,298.2
"2010-08-22 00:25:30",92512,3.765,340.3,5.319,0.459,24.11,111.1722,27.91,28.81,19.94,0,111.5,13.05,28.76,302.3
"2010-08-22 00:26:00",92513,3.105,343.4,7.78,0.319,24.23,111.1686,27.9,28.79,19.98,0,111.5,13.05,28.75,305.4
"2010-08-22 00:26:30",92514,3.271,334.8,5.085,0.374,24.21,111.1674,27.9,28.78,20.04,0,111.5,13.04,28.74,296.8
"2010-08-22 00:27:00",92515,3.133,334.8,3.247,0.464,24.19,111.1672,27.89,28.77,20.05,0,111.5,13.04,28.74,296.8
"2010-08-22 00:27:30",92516,2.588,354.8,7.246,0.884,24.38,111.1661,27.89,28.77,20.68,0,111.5,13.04,28.74,316.8
"2010-08-22 00:28:00",92517,3.157,345,7.465,0.443,24.16,111.1644,27.89,28.76,20.91,0,111.5,13.04,28.74,307.0
"2010-08-22 00:28:30",92518,3.085,337.6,5.285,0.191,24.1,111.1433,27.83,28.75,20.19,0,111.5,13.04,28.68,299.6
"2010-08-22 00:29:00",92519,2.489,353.3,5.856,0.71,24.32,111.1489,27.85,28.74,19.99,0,111.5,13.05,28.70,315.3
"2010-08-22 00:29:30",92520,3.163,352.6,6.007,0.641,24.08,111.1456,27.84,28.72,21.42,0,111.5,13.04,28.69,314.6
"2010-08-22 00:30:00",92521,2.878,345.8,13.38,0.601,24.02,111.1414,27.83,28.73,20.88,0,111.5,13.04,28.68,307.8
"2010-08-22 00:30:30",92522,2.986,332.8,4.547,0.145,23.88,111.135,27.81,28.72,20.61,0,111.5,13.05,28.66,294.8
"2010-08-22 00:31:00",92523,2.653,343.3,4.028,0.215,23.85,111.1372,27.82,28.72,20.27,0,111.5,13.05,28.67,305.3
"2010-08-22 00:31:30",92524,2.126,349.6,6.99,0.574,24.05,111.1456,27.84,28.73,19.92,0,111.5,13.05,28.69,311.6
"2010-08-22 00:32:00",92525,1.506,353.7,9.74,0.583,24.05,111.1743,27.91,28.75,19.96,0,111.5,13.05,28.76,315.7
"2010-08-22 00:32:30",92526,2.228,334.4,4.881,0.255,23.72,111.1838,27.94,28.78,19.94,0,111.5,13.05,28.79,296.4
"2010-08-22 00:33:00",92527,1.656,334.1,7.873,0.108,23.8,111.1768,27.92,28.78,19.78,0,111.5,13.05,28.77,296.1
"2010-08-22 00:33:30",92528,1.788,329.7,4.364,0.167,23.8,111.1804,27.93,28.78,19.71,0,111.5,13.05,28.78,291.7
"2010-08-22 00:34:00",92529,2.186,330.1,3.633,0.14,23.82,111.191,27.96,28.79,19.71,0,111.5,13.05,28.81,292.1
"2010-08-22 00:34:30",92530,1.881,328.1,2.624,0.147,23.8,111.1987,27.98,28.82,19.67,0,111.5,13.05,28.83,290.1
"2010-08-22 00:35:00",92531,1.758,331.4,5.167,0.174,23.77,111.2053,27.99,28.82,19.65,0,111.5,13.05,28.84,293.4
"2010-08-22 00:35:30",92532,1.253,331,8.46,0.148,23.72,111.2033,27.99,28.84,19.63,0,111.5,13.05,28.84,293.0
"2010-08-22 00:36:00",92533,0.995,329.3,17.68,0.41,23.79,111.2049,27.99,28.83,19.63,0,111.5,13.05,28.84,291.3
"2010-08-22 00:36:30",92534,0.409,346.4,9.99,0.114,23.68,111.2102,28.01,28.85,19.57,0,111.5,13.05,28.86,308.4
"2010-08-22 00:37:00",92535,0.453,316.6,16.8,0.189,23.58,111.2107,28.01,28.87,19.55,0,111.5,13.05,28.86,278.6
"2010-08-22 00:37:30",92536,0.546,302.7,9.45,0.142,23.55,111.2114,28.01,28.88,19.55,0,111.5,13.05,28.86,264.7
"2010-08-22 00:38:00",92537,0.498,296.8,8.93,0.151,23.53,111.2105,28.01,28.88,19.53,0,111.5,13.05,28.86,258.8
"2010-08-22 00:38:30",92538,0.689,307.6,4.742,0.156,23.52,111.2074,28,28.88,19.54,0,111.5,13.05,28.85,269.6
"2010-08-22 00:39:00",92539,0.855,304.8,4.608,0.151,23.52,111.2019,27.98,28.88,19.56,0,111.5,13.05,28.83,266.8
"2010-08-22 00:39:30",92540,0.608,337.6,9.93,0.12,23.58,111.2039,27.99,28.89,19.59,0,111.5,13.05,28.84,299.6
"2010-08-22 00:40:00",92541,0.603,351,15.62,0.331,23.77,111.2098,28,28.88,19.6,0,111.5,13.05,28.85,313.0
"2010-08-22 00:40:30",92542,0.357,32.1,8.46,0.16,23.67,111.2381,28.08,28.89,19.57,0,111.5,13.05,28.93,354.1
"2010-08-22 00:41:00",92543,0.45,40.86,3.526,0.096,23.55,111.2549,28.12,28.93,19.51,0,111.5,13.05,28.97,2.9
"2010-08-22 00:41:30",92544,0.752,47.55,8.67,0.215,23.57,111.2499,28.11,28.93,19.57,0,111.5,13.05,28.96,9.5
"2010-08-22 00:42:00",92545,0.699,29.43,12.7,0.28,23.65,111.2557,28.12,28.96,19.55,0,111.5,13.05,28.97,351.4
"2010-08-22 00:42:30",92546,1.348,18.52,7.107,0.295,23.7,111.2675,28.15,28.96,19.57,0,111.5,13.05,29.00,340.5
"2010-08-22 00:43:00",92547,1.097,356.1,8.25,0.312,23.9,111.2756,28.17,28.98,19.15,0,111.5,13.05,29.02,318.1
"2010-08-22 00:43:30",92548,2.362,340.7,5.531,0.292,23.42,111.2686,28.16,28.96,19.14,0,111.5,13.05,29.01,302.7
"2010-08-22 00:44:00",92549,2.326,338.7,8.74,0.218,23.53,111.2366,28.07,28.93,19.96,0,111.5,13.04,28.92,300.7
"2010-08-22 00:44:30",92550,2.248,332.5,6.663,0.176,23.53,111.2068,28,28.89,20,0,111.5,13.04,28.85,294.5
"2010-08-22 00:45:00",92551,2.055,340.3,7.116,0.203,23.59,111.195,27.97,28.85,19.83,0,111.5,13.04,28.82,302.3
"2010-08-22 00:45:30",92552,1.689,340,10.73,0.23,23.61,111.1897,27.95,28.84,19.68,0,111.5,13.04,28.80,302.0
"2010-08-22 00:46:00",92553,1.311,335.5,13.28,0.18,23.6,111.1902,27.95,28.83,19.69,0,111.5,13.04,28.80,297.5
"2010-08-22 00:46:30",92554,1.119,327.1,7.609,0.247,23.6,111.1811,27.93,28.83,20.19,0,111.5,13.04,28.78,289.1
"2010-08-22 00:47:00",92555,1.276,330.9,7.975,0.208,23.6,111.169,27.9,28.81,19.85,0,111.5,13.04,28.75,292.9
"2010-08-22 00:47:30",92556,1.893,323.8,4.895,0.337,23.73,111.1713,27.91,28.79,19.74,0,111.5,13.04,28.75,285.8
"2010-08-22 00:48:00",92557,2.056,329,8.18,0.304,23.78,111.1853,27.94,28.81,19.95,0,111.5,13.04,28.79,291.0
"2010-08-22 00:48:30",92558,1.557,312,22.66,0.416,23.8,111.1915,27.96,28.81,19.89,0,111.5,13.05,28.81,274.0
"2010-08-22 00:49:00",92559,1.217,284.1,14.7,0.487,23.81,111.1979,27.97,28.82,19.93,0,111.5,13.05,28.82,246.1
"2010-08-22 00:49:30",92560,0.265,207.8,68.91,0.293,23.78,111.2007,27.98,28.85,19.94,0,111.5,13.05,28.83,169.8
"2010-08-22 00:50:00",92561,0.6,79.24,20.46,0.219,23.79,111.2102,28.01,28.84,19.93,0,111.5,13.05,28.86,41.2
"2010-08-22 00:50:30",92562,0.247,164.8,79.91,0.195,23.76,111.2245,28.04,28.87,20.09,0,111.5,13.05,28.89,126.8
"2010-08-22 00:51:00",92563,0.563,220.3,10.94,0.098,23.82,111.2416,28.09,28.88,20.18,0,111.5,13.05,28.94,182.3
"2010-08-22 00:51:30",92564,0.835,219.4,8.12,0.255,23.77,111.2582,28.13,28.91,20.13,0,111.6,13.05,28.98,181.4
"2010-08-22 00:52:00",92565,1.076,246.4,10.27,0.094,23.81,111.2587,28.13,28.93,20.13,0,111.6,13.05,28.98,208.4
"2010-08-22 00:52:30",92566,0.924,253.4,9.14,0.105,23.81,111.2587,28.13,28.93,20.09,0,111.6,13.05,28.98,215.4
"2010-08-22 00:53:00",92567,0.657,241.8,9.31,0.109,23.82,111.2587,28.13,28.95,20.11,0,111.6,13.05,28.98,203.8
"2010-08-22 00:53:30",92568,0.723,249.5,10.68,0.145,23.75,111.2581,28.13,28.96,20,0,111.6,13.05,28.98,211.5
"2010-08-22 00:54:00",92569,1.051,236.4,9.32,0.185,23.78,111.2572,28.13,28.96,19.99,0,111.6,13.05,28.98,198.4
"2010-08-22 00:54:30",92570,0.913,223.7,15.02,0.355,23.78,111.2559,28.12,28.94,20.09,0,111.6,13.05,28.97,185.7
"2010-08-22 00:55:00",92571,0.915,218.2,17.07,0.399,23.71,111.2556,28.12,28.94,20.16,0,111.6,13.05,28.97,180.2
"2010-08-22 00:55:30",92572,1.012,159.2,19.75,0.247,23.73,111.2528,28.12,28.96,20.14,0,111.6,13.05,28.97,121.2
"2010-08-22 00:56:00",92573,1.06,182.2,34.72,0.163,23.74,111.2512,28.11,28.94,20.13,0,111.6,13.05,28.96,144.2
"2010-08-22 00:56:30",92574,1.233,226.6,14.33,0.223,23.79,111.2478,28.1,28.97,20.08,0,111.6,13.05,28.95,188.6
"2010-08-22 00:57:00",92575,1.184,234.4,5.078,0.173,23.79,111.2473,28.1,28.97,20.08,0,111.6,13.05,28.95,196.4
"2010-08-22 00:57:30",92576,0.698,252.1,14.77,0.14,23.83,111.2445,28.09,28.94,19.98,0,111.6,13.05,28.94,214.1
"2010-08-22 00:58:00",92577,0.844,218.1,5.174,0.119,23.77,111.2439,28.09,28.95,19.97,0,111.6,13.05,28.94,180.1
"2010-08-22 00:58:30",92578,0.92,211.7,7.348,0.191,23.77,111.2382,28.08,28.93,20,0,111.6,13.05,28.93,173.7
"2010-08-22 00:59:00",92579,0.627,197.2,9.48,0.142,23.79,111.2347,28.07,28.93,20.01,0,111.6,13.05,28.92,159.2
"2010-08-22 00:59:30",92580,0.657,158.6,11.59,0.162,23.81,111.2268,28.05,28.93,20.06,0,111.6,13.04,28.90,120.6
"2010-08-22 01:00:00",92581,0.949,151.2,6.251,0.2,23.76,111.2335,28.07,28.93,20.11,0,111.6,13.04,28.92,113.2
"2010-08-22 01:00:30",92582,0.567,158.8,19.93,0.08,23.81,111.2311,28.06,28.92,20.13,0,111.6,13.04,28.91,120.8
"2010-08-22 01:01:00",92583,0.733,170.1,18.5,0.207,23.8,111.2297,28.06,28.92,20.15,0,111.6,13.03,28.91,132.1
"2010-08-22 01:01:30",92584,1.199,232,7.507,0.425,23.76,111.2251,28.04,28.93,20.06,0,111.6,13.03,28.89,194.0
"2010-08-22 01:02:00",92585,1.642,236.9,6.789,0.238,23.78,111.2154,28.02,28.91,20.09,0,111.6,13.03,28.87,198.9
"2010-08-22 01:02:30",92586,1.677,241.8,9.3,0.23,23.83,111.2096,28,28.91,20.07,0,111.6,13.03,28.85,203.8
"2010-08-22 01:03:00",92587,1.848,213.8,23.73,0.506,23.82,111.2091,28,28.9,20.15,0,111.6,13.03,28.85,175.8
"2010-08-22 01:03:30",92588,2.815,183.1,6.127,0.343,23.82,111.2097,28,28.9,20.12,0,111.6,13.03,28.85,145.1
"2010-08-22 01:04:00",92589,2.105,220,10.98,0.304,23.89,111.2088,28,28.88,20.08,0,111.6,13.03,28.85,182.0
"2010-08-22 01:04:30",92590,2.33,228,13.79,0.376,23.88,111.206,27.99,28.89,20.09,0,111.6,13.03,28.84,190.0
"2010-08-22 01:05:00",92591,2.01,244.7,16.06,0.531,23.92,111.2026,27.99,28.88,20.01,0,111.6,13.04,28.84,206.7
"2010-08-22 01:05:30",92592,1.522,221.6,8.57,0.273,23.9,111.1979,27.97,28.89,19.99,0,111.6,13.04,28.82,183.6
"2010-08-22 01:06:00",92593,1.715,222.9,11.45,0.151,23.9,111.197,27.97,28.87,20.08,0,111.6,13.04,28.82,184.9
"2010-08-22 01:06:30",92594,1.56,252.4,19.29,0.621,23.92,111.197,27.97,28.87,20.08,0,111.6,13.04,28.82,214.4
"2010-08-22 01:07:00",92595,0.729,198.3,18.43,0.469,23.94,111.197,27.97,28.85,20.18,0,111.6,13.04,28.82,160.3
"2010-08-22 01:07:30",92596,2.06,188.7,13.21,0.505,23.9,111.197,27.97,28.85,20.22,0,111.6,13.04,28.82,150.7
"2010-08-22 01:08:00",92597,2.207,173.7,10.61,0.435,23.94,111.197,27.97,28.85,20.22,0,111.6,13.04,28.82,135.7
"2010-08-22 01:08:30",92598,1.337,196,12.54,0.335,23.95,111.1977,27.97,28.86,20.24,0,111.6,13.04,28.82,158.0
"2010-08-22 01:09:00",92599,0.995,178.5,12.64,0.172,23.91,111.1971,27.97,28.86,20.14,0,111.6,13.04,28.82,140.5
"2010-08-22 01:09:30",92600,1.072,192.8,12.55,0.237,23.93,111.1959,27.97,28.83,20.16,0,111.6,13.04,28.82,154.8
"2010-08-22 01:10:00",92601,1.228,187.8,12.42,0.399,23.97,111.1943,27.96,28.84,20.14,0,111.6,13.04,28.81,149.8
"2010-08-22 01:10:30",92602,2.307,195.8,7.068,0.196,23.99,111.1889,27.95,28.84,20.18,0,111.6,13.04,28.80,157.8
"2010-08-22 01:11:00",92603,1.832,206.1,6.796,0.441,24.05,111.1853,27.94,28.83,20.24,0,111.6,13.04,28.79,168.1
"2010-08-22 01:11:30",92604,1.84,214.8,5.618,0.317,24.11,111.1791,27.93,28.83,20.22,0,111.6,13.04,28.77,176.8
"2010-08-22 01:12:00",92605,1.904,195.1,15.22,0.365,24.11,111.1739,27.91,28.82,20.21,0,111.6,13.04,28.76,157.1
"2010-08-22 01:12:30",92606,1.458,201.4,12.47,0.487,24.21,111.1734,27.91,28.82,20.21,0,111.6,13.05,28.76,163.4
"2010-08-22 01:13:00",92607,1.786,203.4,12.74,0.518,24.22,111.1723,27.91,28.82,20.2,0,111.6,13.05,28.76,165.4
"2010-08-22 01:13:30",92608,2.442,230.3,6.76,0.364,24.26,111.1715,27.91,28.81,20.2,0,111.6,13.05,28.76,192.3
"2010-08-22 01:14:00",92609,1.597,197,15.95,0.291,24.22,111.1724,27.91,28.8,20.21,0,111.6,13.05,28.76,159.0
"2010-08-22 01:14:30",92610,2.04,167.4,9.9,0.337,24.15,111.1762,27.92,28.8,20.24,0,111.6,13.05,28.77,129.4
"2010-08-22 01:15:00",92611,1.45,149.1,14.82,0.18,24.11,111.1793,27.93,28.8,20.31,0,111.6,13.05,28.78,111.1
"2010-08-22 01:15:30",92612,2.161,140.8,4.033,0.289,24.11,111.1793,27.93,28.79,20.29,0,111.6,13.05,28.78,102.8
"2010-08-22 01:16:00",92613,1.988,151.4,9.97,0.093,24.1,111.1753,27.92,28.79,20.3,0,111.6,13.05,28.77,113.4
"2010-08-22 01:16:30",92614,1.867,165.3,4.966,0.161,24.16,111.1727,27.91,28.78,20.34,0,111.6,13.04,28.76,127.3
"2010-08-22 01:17:00",92615,1.659,152.1,10.94,0.182,24.15,111.1699,27.9,28.77,20.51,0,111.6,13.04,28.75,114.1
"2010-08-22 01:17:30",92616,1.698,120.1,22.26,0.208,24.23,111.1649,27.89,28.78,20.55,0,111.6,13.04,28.74,82.1
"2010-08-22 01:18:00",92617,1.827,121.1,20.03,0.19,24.21,111.1587,27.87,28.76,20.96,0,111.6,13.04,28.72,83.1
"2010-08-22 01:18:30",92618,2.483,140.4,7.267,0.282,24.2,111.1565,27.87,28.75,21.4,0,111.6,13.03,28.72,102.4
"2010-08-22 01:19:00",92619,3.496,134.3,3.598,0.369,24.21,111.1553,27.86,28.73,21.64,0,111.6,13.04,28.71,96.3
"2010-08-22 01:19:30",92620,4.3,150.4,10.23,0.426,24.22,111.1557,27.87,28.74,21.62,0,111.5,13.04,28.71,112.4
"2010-08-22 01:20:00",92621,3.184,154.5,11.95,0.299,24.22,111.1483,27.85,28.72,21.53,0,111.5,13.04,28.70,116.5
"2010-08-22 01:20:30",92622,3.079,134.9,5.114,0.199,24.27,111.134,27.81,28.71,21.47,0,111.5,13.04,28.66,96.9
"2010-08-22 01:21:00",92623,2.496,137.7,7.75,0.212,24.27,111.1334,27.81,28.69,21.38,0,111.5,13.04,28.66,99.7
"2010-08-22 01:21:30",92624,2.351,159,8.13,0.273,24.2,111.1332,27.81,28.7,21.56,0,111.5,13.04,28.66,121.0
"2010-08-22 01:22:00",92625,2.305,132.5,6.706,0.698,24.18,111.1312,27.8,28.7,21.64,0,111.5,13.04,28.65,94.5
"2010-08-22 01:22:30",92626,2.398,142.8,13.95,0.388,24.18,111.1254,27.79,28.69,21.64,0,111.5,13.05,28.64,104.8
"2010-08-22 01:23:00",92627,3.13,157.4,4.594,0.558,24.15,111.1254,27.79,28.67,21.7,0,111.5,13.05,28.64,119.4
"2010-08-22 01:23:30",92628,3.471,159.4,4.893,0.444,24.15,111.1097,27.75,28.65,21.82,0,111.5,13.05,28.60,121.4
"2010-08-22 01:24:00",92629,3.111,167.9,4.584,0.453,24.15,111.0968,27.71,28.64,21.92,0,111.5,13.05,28.56,129.9
"2010-08-22 01:24:30",92630,2.246,161.7,8.34,0.485,24.21,111.094,27.71,28.6,21.83,0,111.5,13.05,28.56,123.7
"2010-08-22 01:25:00",92631,2.468,200.8,10.6,0.401,24.28,111.0971,27.71,28.61,21.39,0,111.5,13.05,28.56,162.8
"2010-08-22 01:25:30",92632,2.664,189,14.83,0.261,24.31,111.1003,27.72,28.6,21.66,0,111.5,13.05,28.57,151.0
"2010-08-22 01:26:00",92633,2.901,178.6,5.887,0.272,24.39,111.1069,27.74,28.6,22.05,0,111.5,13.05,28.59,140.6
"2010-08-22 01:26:30",92634,2.789,199.5,9.74,0.327,24.37,111.108,27.74,28.6,22.05,0,111.5,13.05,28.59,161.5
"2010-08-22 01:27:00",92635,3.082,184.5,9.17,0.3,24.36,111.1086,27.74,28.61,22.05,0,111.5,13.05,28.59,146.5
"2010-08-22 01:27:30",92636,3.05,187.8,9.99,0.271,24.39,111.1055,27.74,28.61,22.05,0,111.5,13.05,28.58,149.8
"2010-08-22 01:28:00",92637,2.773,190.7,6.679,0.224,24.36,111.1002,27.72,28.59,21.88,0,111.5,13.05,28.57,152.7
"2010-08-22 01:28:30",92638,2.65,208.1,9.17,0.273,24.37,111.0999,27.72,28.6,21.84,0,111.5,13.05,28.57,170.1
"2010-08-22 01:29:00",92639,2.85,205.1,7.15,0.218,24.38,111.0999,27.72,28.59,21.75,0,111.5,13.05,28.57,167.1
"2010-08-22 01:29:30",92640,2.657,197.8,5.365,0.226,24.42,111.0999,27.72,28.59,21.84,0,111.5,13.05,28.57,159.8
"2010-08-22 01:30:00",92641,2.697,208.1,8.14,0.265,24.43,111.1002,27.72,28.59,21.92,0,111.5,13.05,28.57,170.1
"2010-08-22 01:30:30",92642,2.575,195.6,3.813,0.181,24.43,111.1002,27.72,28.6,21.85,0,111.5,13.06,28.57,157.6
"2010-08-22 01:31:00",92643,2.578,185.3,8.59,0.366,24.44,111.103,27.73,28.6,21.79,0,111.5,13.06,28.58,147.3
"2010-08-22 01:31:30",92644,2.471,170.2,4.406,0.36,24.41,111.1043,27.73,28.59,21.67,0,111.5,13.06,28.58,132.2
"2010-08-22 01:32:00",92645,2.066,181.3,8.61,0.435,24.4,111.0956,27.71,28.59,21.71,0,111.5,13.06,28.56,143.3
"2010-08-22 01:32:30",92646,2.772,200.7,6.92,0.292,24.37,111.0879,27.69,28.58,21.77,0,111.5,13.06,28.54,162.7
"2010-08-22 01:33:00",92647,3.365,204,6.281,0.317,24.4,111.0881,27.69,28.57,21.84,0,111.5,13.06,28.54,166.0
"2010-08-22 01:33:30",92648,3.562,194.4,1.885,0.291,24.42,111.0874,27.69,28.56,22.15,0,111.4,13.06,28.54,156.4
"2010-08-22 01:34:00",92649,4.103,192.4,2.125,0.115,24.45,111.0865,27.69,28.56,22.07,0,111.4,13.05,28.54,154.4
"2010-08-22 01:34:30",92650,3.986,189.3,5.013,0.248,24.42,111.0864,27.69,28.55,22.14,0,111.4,13.05,28.54,151.3
"2010-08-22 01:35:00",92651,4.25,187.7,3.135,0.18,24.51,111.0802,27.67,28.54,22.06,0,111.4,13.05,28.52,149.7
"2010-08-22 01:35:30",92652,4.127,191.1,2.77,0.251,24.5,111.0797,27.67,28.53,22.05,0,111.4,13.05,28.52,153.1
"2010-08-22 01:36:00",92653,3.736,191.9,1.739,0.175,24.51,111.0769,27.66,28.54,22.06,0,111.4,13.05,28.51,153.9
"2010-08-22 01:36:30",92654,3.556,189.1,3.741,0.147,24.56,111.0744,27.66,28.52,22.05,0,111.4,13.05,28.50,151.1
"2010-08-22 01:37:00",92655,3.813,181.2,1.519,0.247,24.55,111.0721,27.65,28.52,22.03,0,111.4,13.05,28.50,143.2
"2010-08-22 01:37:30",92656,4.315,184.7,3.003,0.344,24.64,111.07,27.64,28.52,21.98,0,111.4,13.05,28.49,146.7
"2010-08-22 01:38:00",92657,4.025,183.6,3.185,0.121,24.59,111.0715,27.65,28.53,22.07,0,111.4,13.05,28.50,145.6
"2010-08-22 01:38:30",92658,4.484,186.1,2.361,0.162,24.62,111.0713,27.65,28.51,21.91,0,111.4,13.05,28.50,148.1
"2010-08-22 01:39:00",92659,5.109,187.4,1.615,0.186,24.62,111.069,27.64,28.49,21.91,0,111.4,13.05,28.49,149.4
"2010-08-22 01:39:30",92660,5.271,185.1,2.523,0.209,24.59,111.07,27.64,28.5,21.91,0,111.4,13.06,28.49,147.1
"2010-08-22 01:40:00",92661,5.581,185.4,1.769,0.115,24.65,111.0655,27.63,28.48,21.7,0,111.4,13.06,28.48,147.4
"2010-08-22 01:40:30",92662,6.058,187.6,1.756,0.107,24.64,111.0621,27.62,28.48,21.58,0,111.4,13.06,28.47,149.6
"2010-08-22 01:41:00",92663,6.457,186.4,1.536,0.157,24.65,111.061,27.62,28.47,21.56,0,111.4,13.06,28.47,148.4
"2010-08-22 01:41:30",92664,6.796,186.2,1.286,0.071,24.7,111.0613,27.62,28.49,21.54,0,111.4,13.06,28.47,148.2
"2010-08-22 01:42:00",92665,6.973,184.5,0.853,0.116,24.62,111.0611,27.62,28.48,21.62,0,111.4,13.06,28.47,146.5
"2010-08-22 01:42:30",92666,7.027,183.5,1.33,0.243,24.63,111.0533,27.6,28.48,21.57,0,111.4,13.06,28.45,145.5
"2010-08-22 01:43:00",92667,7.013,183.8,1.009,0.276,24.65,111.0485,27.59,28.47,21.56,0,111.4,13.06,28.44,145.8
"2010-08-22 01:43:30",92668,6.786,183.9,1.838,0.196,24.61,111.0476,27.59,28.48,21.59,0,111.4,13.06,28.44,145.9
"2010-08-22 01:44:00",92669,7.107,182.7,0.919,0.126,24.63,111.0423,27.57,28.46,21.62,0,111.4,13.07,28.42,144.7
"2010-08-22 01:44:30",92670,7.048,181.3,1.285,0.167,24.65,111.0435,27.58,28.46,21.59,0,111.4,13.07,28.42,143.3
"2010-08-22 01:45:00",92671,6.946,180.1,1.681,0.196,24.63,111.051,27.6,28.45,21.54,0,111.4,13.07,28.44,142.1
"2010-08-22 01:45:30",92672,6.852,181.4,1.305,0.117,24.62,111.0566,27.61,28.46,21.5,0,111.4,13.07,28.46,143.4
"2010-08-22 01:46:00",92673,6.66,183.4,1.641,0.134,24.64,111.0626,27.63,28.44,21.44,0,111.4,13.07,28.47,145.4
"2010-08-22 01:46:30",92674,6.574,184,2.294,0.159,24.62,111.0632,27.63,28.45,21.52,0,111.4,13.07,28.48,146.0
"2010-08-22 01:47:00",92675,6.41,185.3,2.386,0.173,24.64,111.0599,27.62,28.46,21.59,0,111.4,13.07,28.47,147.3
"2010-08-22 01:47:30",92676,6.371,185.3,3.597,0.152,24.63,111.047,27.59,28.45,21.62,0,111.4,13.07,28.43,147.3
"2010-08-22 01:48:00",92677,6.394,183.9,2.997,0.163,24.59,111.0398,27.57,28.43,21.65,0,111.4,13.07,28.42,145.9
"2010-08-22 01:48:30",92678,6.343,185.1,1.901,0.148,24.62,111.0344,27.55,28.42,21.64,0,111.4,13.07,28.40,147.1
"2010-08-22 01:49:00",92679,6.539,186.1,1.029,0.178,24.64,111.0385,27.56,28.42,21.67,0,111.3,13.07,28.41,148.1